sat.trackr.live / text

‹ back to catalog

STARLINK-1225

NORAD 45187 · 2020-012K

PAYLOAD ACTIVE UNKNOWN

§ Identity

Operator
Country
US
Launch date
2020-02-17
Launch site
AFETR
Launch vehicle
Mass (kg)
RCS (m²)

Purposes: comms

External: N2YO · Heavens-Above · Gunter

§ Orbital elements

Epoch: 2026-09-19T11:30:06.363648Z

Period
93.31 min
Inclination
53.1514°
Eccentricity
0.0001713
Mean motion
15.43224302 rev/d
Perigee alt
435.4 km
Apogee alt
437.8 km
Semi-major
6,814.7 km
B*
9.4548e-4
RAAN
211.8186°
Arg perigee
91.7898°
Mean anomaly
268.3305°
Rev number
36,471

§ Raw data

STARLINK-12251 45187U 20012K   26262.47924032  .00042460  00000+0  94548-3 0  99972 45187  53.1514 211.8186 0001713  91.7898 268.3305 15.43224302364711

JSON: /api/v1/satellites/45187 · /tle

For live sub-satellite position, see the globe view (requires WebGL).

§ Visibility from observer

Set your observer location to see the next 7 days of passes ≥ 10°. The values pass through the URL so the page stays shareable.

No JS? Fill the form by hand. The geolocation button needs JavaScript.